Location: Bogis-Bossey
(46.3500°N, 6.1667°E)
Time: 01:08:04
(UTC+00:00)

Cosmos 1603 - Pass Details

Date: 17 August 2022
Orbit: 832 x 858 km, 71.0° (Epoch: 25 September)

Event Time Altitude Azimuth Distance (km) Brightness Sun altitude
Rises 18:59:53 0° 332° (NNW) 3,429 7.8 -3.8°
Reaches altitude 10° 19:02:21 10° 333° (NNW) 2,485 7.0 -4.1°
Maximum altitude 19:08:05 85° 245° (WSW) 854 3.8 -5.0°
Drops below altitude 10° 19:13:43 10° 158° (SSE) 2,450 5.7 -5.9°
Sets 19:16:08 0° 157° (SSE) 3,377 6.4 -6.3°
